User: anonymous   Login
Location: Gairloch Mountain Observatory
(46.1383°N, 60.9640°W)
Time: 22:42:22
(UTC-04:00)
Language:

CENTAUR R/B - Orbit

View from above orbital plane
View from above orbital plane
View from above satellite
View from above satellite

Ground track
Ground track

The orbit data is extracted from the following two-line orbital elements,

1 26906U 01040B   14329.77236858 0.00000170  00000-0  23584-3 0    09
2 26906  63.4635 206.9989 0270000 344.8782  15.1218 13.43931134    00
Epoch (UTC): 25 November 2014 18:32:12
Eccentricity: 0.0270000
inclination: 63.4635°
perigee height: 893 km
apogee height: 1296 km
right ascension of ascending node: 206.9989°
argument of perigee: 344.8782°
revolutions per day: 13.43931134
mean anomaly at epoch: 15.1218°
orbit number at epoch: 0

The dashed part of the orbit path shows where the satellite is in the earth's shadow,  

DLR